Location: Sungai Bunut
(2.6333°N, 113.7333°E)
Time: 11:22:55
(UTC+00:00)

Transit 2A - Pass Details

Date: 12 December 2023
Orbit: 599 x 953 km, 66.7° (Epoch: 01 March)

Event Time Altitude Azimuth Distance (km) Brightness Sun altitude
Rises 05:40:35 0° 227° (SW) 3,466 9.9 57.4°
Reaches altitude 10° 05:43:49 10° 243° (WSW) 2,464 9.3 57.0°
Maximum altitude 05:47:49 20° 288° (WNW) 1,787 8.4 56.3°
Drops below altitude 10° 05:51:36 10° 335° (NNW) 2,285 8.4 55.7°
Sets 05:54:29 0° 352° (N) 3,137 8.9 55.3°
